Ankara, Turkey

7:01 PM +03 on April 24, 2017 (GMT +0300)
Esenboga

Weather History for LTAC - September, 2013

Change the Weather History Date:

Saturday, September 14, 2013

  Actual Average Record
Temperature  
Mean Temperature 67 °F -  
Max Temperature 83 °F 69 °F 89 °F (1998)
Min Temperature 51 °F 42 °F 35 °F (2004)
Cooling Degree Days 2    
Growing Degree Days 17 (Base 50)    
Moisture  
Dew Point 42 °F    
Average Humidity 39    
Maximum Humidity 59    
Minimum Humidity 12    
Precipitation  
Precipitation 0.00 in - - ()
Sea Level Pressure  
Sea Level Pressure 29.96 in    
Wind  
Wind Speed 6 mph ()    
Max Wind Speed 23 mph    
Max Gust Speed -    
Visibility 7.0 miles    
Events      
Averages and records for this station are not official NWS values.
T = Trace of Precipitation, MM = Missing Value Source: Averaged Metar Reports

Daily Weather History Graph

Daily Weather History Graph

Search for Another Location

Airport or City:

Trip Planner

Search our weather history database for the weather conditions in past years. The results will help you decide how hot, cold, wet, or windy it might be!

Date:

Astronomy

Sep. 14, 2013 Rise Set
Actual Time 6:27 AM EEST 6:58 PM EEST
Civil Twilight 6:00 AM EEST 7:25 PM EEST
Nautical Twilight 5:28 AM EEST 7:57 PM EEST
Astronomical Twilight 4:55 AM EEST 8:30 PM EEST
Moon 3:23 PM EEST (9/14) 12:37 AM EEST (9/14)
Length of Visible Light 13h 25m
Length of Day
12h 30m
Waxing Gibbous, 69% of the Moon is Illuminated
Sep 14
Waxing Gibbous
Sep 19
Full
Sep 27
Last Quarter
Oct 5
New
Oct 12
First Quarter

Hourly Weather History & Observations

Time (EEST) Temp. Dew Point Humidity Pressure Visibility Wind Dir Wind Speed Gust Speed Precip Events Conditions
12:20 AM 62.6 °F 39.2 °F 42% 30.01 in - North 1.2 mph - N/A   Clear
12:50 AM 64.4 °F 37.4 °F 37% 30.01 in - Variable 1.2 mph - N/A   Clear
1:20 AM 64.4 °F 37.4 °F 37% 30.01 in - SE 2.3 mph - N/A   Clear
1:50 AM 59.0 °F 37.4 °F 45% 30.01 in - Variable 1.2 mph - N/A   Clear
2:20 AM 59.0 °F 37.4 °F 45% 30.01 in - Variable 2.3 mph - N/A   Clear
2:50 AM 59.0 °F 37.4 °F 45% 30.01 in - NE 4.6 mph - N/A   Clear
3:20 AM 59.0 °F 37.4 °F 45% 29.98 in - NE 4.6 mph - N/A   Clear
3:50 AM 57.2 °F 35.6 °F 44% 29.98 in - NE 3.5 mph - N/A   Clear
4:20 AM 53.6 °F 35.6 °F 51% 29.98 in - Variable 1.2 mph - N/A   Clear
4:50 AM 55.4 °F 37.4 °F 51% 29.98 in - Variable 1.2 mph - N/A   Clear
5:20 AM 53.6 °F 37.4 °F 54% 29.98 in - Variable 2.3 mph - N/A   Clear
5:50 AM 55.4 °F 35.6 °F 47% 29.98 in - Variable 2.3 mph - N/A   Clear
6:20 AM 55.4 °F 37.4 °F 51% 29.98 in - Variable 1.2 mph - N/A   Clear
6:50 AM 53.6 °F 37.4 °F 54% 29.98 in - Variable 2.3 mph - N/A   Clear
7:20 AM 55.4 °F 39.2 °F 54% 29.98 in - Variable 2.3 mph - N/A   Clear
7:50 AM 59.0 °F 39.2 °F 48% 29.98 in - Variable 1.2 mph - N/A   Clear
8:20 AM 62.6 °F 39.2 °F 42% 29.98 in - Variable 1.2 mph - N/A   Clear
8:50 AM 71.6 °F 44.6 °F 38% 29.98 in - South 8.1 mph - N/A   Clear
9:00 AM 71 °F 43 °F 25% 29.83 in 12 mi South 8.1 mph - -   Partly Cloudy
9:20 AM 73.4 °F 44.6 °F 36% 29.98 in - SSW 10.4 mph - N/A   Clear
9:50 AM 75.2 °F 44.6 °F 34% 29.98 in - SSW 12.7 mph - N/A   Clear
10:20 AM 77.0 °F 44.6 °F 32% 29.98 in - SSW 13.8 mph - N/A   Clear
10:50 AM 77.0 °F 44.6 °F 32% 29.98 in 6.2 mi SSW 12.7 mph - N/A   Partly Cloudy
11:20 AM 78.8 °F 44.6 °F 30% 29.98 in 6.2 mi SSW 11.5 mph - N/A   Partly Cloudy
11:50 AM 78.8 °F 44.6 °F 30% 29.95 in 6.2 mi SW 16.1 mph - N/A   Partly Cloudy
12:20 PM 80.6 °F 44.6 °F 28% 29.95 in 6.2 mi SW 15.0 mph - N/A   Partly Cloudy
12:50 PM 80.6 °F 44.6 °F 28% 29.95 in 6.2 mi SSW 18.4 mph - N/A   Partly Cloudy
1:20 PM 84.2 °F 42.8 °F 23% 29.92 in 6.2 mi SW 19.6 mph - N/A   Scattered Clouds
1:50 PM 82.4 °F 42.8 °F 25% 29.92 in 6.2 mi SW 18.4 mph - N/A   Scattered Clouds
2:20 PM 82.4 °F 41.0 °F 23% 29.92 in 6.2 mi SW 23.0 mph - N/A   Scattered Clouds
2:50 PM 82.4 °F 41.0 °F 23% 29.92 in 6.2 mi West 19.6 mph - N/A   Scattered Clouds
3:00 PM 83 °F 40 °F 12% 29.77 in 12 mi WSW 20.7 mph - -   Partly Cloudy
3:20 PM 82.4 °F 41.0 °F 23% 29.92 in 6.2 mi WSW 20.7 mph - N/A   Scattered Clouds
3:50 PM 82.4 °F 41.0 °F 23% 29.92 in 6.2 mi West 16.1 mph - N/A   Scattered Clouds
4:20 PM 82.4 °F 42.8 °F 25% 29.89 in 6.2 mi WSW 15.0 mph - N/A   Scattered Clouds
4:50 PM 82.4 °F 42.8 °F 25% 29.92 in 6.2 mi WSW 16.1 mph - N/A   Scattered Clouds
5:20 PM 80.6 °F 42.8 °F 26% 29.89 in 6.2 mi West 16.1 mph - N/A   Scattered Clouds
5:50 PM 78.8 °F 42.8 °F 28% 29.92 in 6.2 mi West 17.3 mph - N/A   Scattered Clouds
6:20 PM 75.2 °F 48.2 °F 38% 29.92 in 6.2 mi NW 19.6 mph - N/A   Scattered Clouds
6:50 PM 71.6 °F 48.2 °F 43% 29.95 in 6.2 mi NW 13.8 mph - N/A   Partly Cloudy
7:20 PM 69.8 °F 48.2 °F 46% 29.95 in 6.2 mi WNW 8.1 mph - N/A   Partly Cloudy
7:50 PM 69.8 °F 48.2 °F 46% 29.95 in 6.2 mi WNW 5.8 mph - N/A   Partly Cloudy
8:20 PM 68.0 °F 48.2 °F 49% 29.95 in - West 8.1 mph - N/A   Clear
8:50 PM 66.2 °F 46.4 °F 49% 29.98 in - NW 4.6 mph - N/A   Clear
9:00 PM 67 °F 47 °F 37% 29.84 in 12 mi NW 4.6 mph - -  
9:20 PM 66.2 °F 46.4 °F 49% 29.98 in - Variable 5.8 mph - N/A   Clear
9:50 PM 64.4 °F 46.4 °F 52% 29.98 in - SW 4.6 mph - N/A   Clear
10:20 PM 60.8 °F 46.4 °F 59% 30.01 in - SW 6.9 mph - N/A   Clear
10:50 PM 60.8 °F 44.6 °F 55% 29.98 in - WSW 5.8 mph - N/A   Clear
11:20 PM 59.0 °F 41.0 °F 51% 30.01 in - West 8.1 mph - N/A   Clear
11:50 PM 57.2 °F 41.0 °F 55% 30.01 in - SW 6.9 mph - N/A   Clear